Weather History for Las Cruces, NM

Change the Weather History Date:

Tuesday, February 19, 2013

  Actual Average Record
Temperature  
Mean Temperature 42 °F -  
Max Temperature 56 °F 57 °F 74 °F (2014)
Min Temperature 27 °F 35 °F 43 °F (2014)
Degree Days  
Heating Degree Days 24    
Moisture  
Dew Point 21 °F    
Average Humidity 50    
Maximum Humidity 99    
Minimum Humidity 13    
Precipitation  
Precipitation 0.06 in - - ()
Sea Level Pressure  
Sea Level Pressure 29.97 in    
Wind  
Wind Speed 6 mph (South)    
Max Wind Speed 18 mph    
Max Gust Speed 23 mph    
Visibility 10 miles    
Events Rain    
Averages and records for this station are not official NWS values.
T = Trace of Precipitation, MM = Missing Value Source: NWS Daily Summary

Daily Weather History Graph

Daily Weather History Graph

Search for Another Location

Airport:

Trip Planner

Search our weather history database for the weather conditions in past years. The results will help you decide how hot, cold, wet, or windy it might be!

Date:

Astronomy

Feb. 19, 2013 Rise Set
Actual Time 6:45 AM MST 5:57 PM MST
Civil Twilight 6:20 AM MST 6:22 PM MST
Nautical Twilight 5:52 AM MST 6:50 PM MST
Astronomical Twilight 5:23 AM MST 7:19 PM MST
Moon 12:41 PM MST (2/19) 2:09 AM MST (2/19)
Length of Visible Light 12h 01m
Length of Day
11h 11m
Waxing Gibbous, 68% of the Moon is Illuminated
Feb 19
Waxing Gibbous
Feb 25
Full
Mar 4
Last Quarter
Mar 11
New
Mar 19
First Quarter

Hourly Weather History & Observations

Time (MST) Temp. Windchill Dew Point Humidity Pressure Visibility Wind Dir Wind Speed Gust Speed Precip Events Conditions
12:15 AM 45.3 °F 42.3 °F 1.6 °F 16% 30.05 in 10.0 mi SSW 5.8 mph - N/A   Clear
12:35 AM 45.0 °F 41.2 °F 1.9 °F 17% 30.05 in 10.0 mi SSW 6.9 mph - N/A   Clear
12:55 AM 44.8 °F 41.6 °F 2.3 °F 17% 30.05 in 10.0 mi SW 5.8 mph - N/A   Clear
1:15 AM 44.1 °F 40.8 °F 3.0 °F 18% 30.05 in 10.0 mi SW 5.8 mph - N/A   Clear
1:35 AM 45.5 °F 41.8 °F 3.2 °F 18% 30.05 in 10.0 mi SSW 6.9 mph - N/A   Clear
1:55 AM 43.2 °F 41.5 °F 3.2 °F 19% 30.05 in 10.0 mi WSW 3.5 mph - N/A   Clear
2:15 AM 38.1 °F - 1.8 °F 22% 30.04 in 10.0 mi Calm Calm - N/A   Clear
2:35 AM 38.3 °F - 2.3 °F 22% 30.04 in 10.0 mi Calm Calm - N/A   Clear
2:55 AM 36.3 °F - 1.8 °F 23% 30.04 in 10.0 mi Calm Calm - N/A   Clear
3:15 AM 34.2 °F - 1.2 °F 25% 30.03 in 10.0 mi Calm Calm - N/A   Clear
3:35 AM 34.7 °F - 1.6 °F 25% 30.02 in 10.0 mi Calm Calm - N/A   Clear
3:55 AM 33.6 °F - 1.6 °F 26% 30.02 in 10.0 mi Calm Calm - N/A   Clear
4:15 AM 32.2 °F - 0.5 °F 26% 30.01 in 10.0 mi Calm Calm - N/A   Clear
5:35 AM 32.9 °F - 2.1 °F 27% 30.00 in 10.0 mi Calm Calm - N/A   Clear
5:55 AM 31.1 °F 27.7 °F 1.2 °F 28% 30.01 in 10.0 mi NW 3.5 mph - N/A   Clear
6:15 AM 28.2 °F 24.4 °F -0.4 °F 29% 30.00 in 10.0 mi NNW 3.5 mph - N/A   Clear
6:35 AM 27.1 °F - -0.6 °F 30% 30.01 in 10.0 mi Calm Calm - N/A   Clear
6:55 AM 28.6 °F - -0.4 °F 29% 30.02 in 10.0 mi Calm Calm - N/A   Clear
7:15 AM 29.7 °F - -0.8 °F 27% 30.02 in 10.0 mi Calm Calm - N/A   Clear
7:35 AM 33.1 °F - 0.3 °F 25% 30.03 in 10.0 mi Calm Calm - N/A   Clear
7:55 AM 39.2 °F - 2.1 °F 21% 30.03 in 10.0 mi Calm Calm - N/A   Clear
8:15 AM 43.7 °F - 3.0 °F 19% 30.04 in 10.0 mi Calm Calm - N/A   Clear
8:35 AM 47.5 °F - 5.0 °F 18% 30.04 in 10.0 mi Calm Calm - N/A   Clear
8:55 AM 49.5 °F - 3.6 °F 15% 30.04 in 10.0 mi SE 4.6 mph - N/A   Clear
9:15 AM 50.9 °F - 4.1 °F 15% 30.03 in 10.0 mi ESE 6.9 mph - N/A   Clear
9:35 AM 50.7 °F - 3.6 °F 15% 30.03 in 10.0 mi ESE 6.9 mph - N/A   Clear
10:15 AM 54.0 °F - 4.3 °F 13% 30.03 in 10.0 mi SSE 9.2 mph - N/A   Clear
10:35 AM 54.9 °F - 5.2 °F 14% 30.02 in 10.0 mi SE 10.4 mph - N/A   Clear
10:55 AM 54.5 °F - 5.0 °F 14% 30.02 in 10.0 mi South 9.2 mph - N/A   Clear
11:15 AM 54.9 °F - 5.7 °F 14% 30.01 in 10.0 mi SSE 10.4 mph - N/A   Clear
11:35 AM 55.9 °F - 9.5 °F 16% 30.00 in 10.0 mi South 12.7 mph - N/A   Clear
11:55 AM 56.3 °F - 14.0 °F 19% 29.98 in 10.0 mi South 12.7 mph - N/A   Clear
12:15 PM 56.5 °F - 15.8 °F 20% 29.97 in 10.0 mi South 13.8 mph - N/A   Clear
12:35 PM 55.8 °F - 13.1 °F 19% 29.97 in 10.0 mi South 12.7 mph 18.4 mph N/A   Clear
12:55 PM 55.8 °F - 25.9 °F 32% 29.96 in 10.0 mi SSW 17.3 mph 20.7 mph N/A   Mostly Cloudy
1:15 PM 55.0 °F - 29.3 °F 37% 29.95 in 10.0 mi SSW 17.3 mph 23.0 mph N/A   Overcast
1:35 PM 55.4 °F - 30.7 °F 39% 29.95 in 10.0 mi SW 15.0 mph - N/A   Overcast
1:55 PM 55.0 °F - 29.5 °F 38% 29.93 in 10.0 mi SSW 17.3 mph - N/A   Overcast
2:15 PM 54.7 °F - 28.8 °F 37% 29.93 in 10.0 mi South 15.0 mph - N/A   Overcast
2:35 PM 54.0 °F - 31.1 °F 42% 29.93 in 10.0 mi SSW 18.4 mph 23.0 mph N/A Rain Light Rain
2:55 PM 52.0 °F - 35.1 °F 53% 29.93 in 10.0 mi South 15.0 mph - N/A Rain Light Rain
3:15 PM 48.4 °F - 40.3 °F 74% 29.94 in 10.0 mi South 18.4 mph - N/A Rain Light Rain
3:35 PM 46.6 °F - 43.5 °F 89% 29.93 in 10.0 mi South 16.1 mph - N/A Rain Rain
3:55 PM 46.8 °F - 44.8 °F 93% 29.95 in 10.0 mi South 11.5 mph - 0.02 in Rain Rain
4:15 PM 46.6 °F - 44.8 °F 93% 29.94 in 10.0 mi SSE 10.4 mph - 0.02 in Rain Light Rain
5:35 PM 45.9 °F 40.8 °F 44.6 °F 95% 29.92 in 10.0 mi SSE 10.4 mph - 0.02 in Rain Light Rain
5:55 PM 46.0 °F 40.6 °F 44.6 °F 95% 29.92 in 10.0 mi SSE 11.5 mph - 0.02 in   Overcast
6:15 PM 45.7 °F 39.5 °F 44.6 °F 96% 29.93 in 10.0 mi SSE 13.8 mph - N/A   Light Drizzle
6:35 PM 45.5 °F 39.9 °F 44.8 °F 97% 29.92 in 10.0 mi SSE 11.5 mph - N/A   Light Drizzle
6:55 PM 45.5 °F 41.8 °F 44.8 °F 97% 29.93 in 10.0 mi SSE 6.9 mph - N/A   Overcast
7:15 PM 45.5 °F 41.3 °F 44.8 °F 97% 29.92 in 10.0 mi SSE 8.1 mph - N/A   Overcast
7:35 PM 45.5 °F 40.8 °F 44.8 °F 97% 29.92 in 10.0 mi SSE 9.2 mph - N/A   Overcast
7:55 PM 45.5 °F 41.8 °F 44.6 °F 97% 29.91 in 10.0 mi SSE 6.9 mph - N/A   Overcast
8:15 PM 45.5 °F 41.8 °F 44.6 °F 97% 29.91 in 10.0 mi SSE 6.9 mph - N/A   Overcast
8:35 PM 45.5 °F 40.8 °F 44.2 °F 95% 29.90 in 10.0 mi South 9.2 mph - N/A   Overcast
8:55 PM 45.5 °F 42.5 °F 43.9 °F 94% 29.90 in 10.0 mi South 5.8 mph - N/A   Overcast
9:15 PM 45.1 °F 41.4 °F 43.7 °F 95% 29.90 in 10.0 mi SSE 6.9 mph - N/A   Overcast
9:35 PM 43.9 °F - 42.8 °F 96% 29.89 in 10.0 mi Calm Calm - N/A   Scattered Clouds
9:55 PM 43.5 °F 41.9 °F 42.6 °F 97% 29.90 in 10.0 mi SSE 3.5 mph - N/A   Clear
10:15 PM 42.6 °F 39.9 °F 41.9 °F 97% 29.88 in 10.0 mi SE 4.6 mph - N/A   Clear
10:35 PM 42.3 °F 37.9 °F 41.9 °F 99% 29.88 in 7.0 mi SSE 6.9 mph - N/A   Clear
10:55 PM 42.8 °F 38.0 °F 42.3 °F 98% 29.86 in 7.0 mi SSE 8.1 mph - N/A   Clear
11:15 PM 42.8 °F 38.6 °F 42.1 °F 97% 29.86 in 7.0 mi SSE 6.9 mph - N/A   Scattered Clouds
11:35 PM 42.3 °F 37.9 °F 41.7 °F 98% 29.84 in 7.0 mi SSE 6.9 mph - N/A   Scattered Clouds
11:55 PM 42.4 °F 38.1 °F 41.9 °F 98% 29.84 in 7.0 mi SSE 6.9 mph - N/A   Clear